Showing default

THEA, 43796

Orbit data source: Space-Track

THEA, 43796 is an American payload satellite in SSO that was launched on Mon, 03 Dec 2018 UTC via an FALCON 9 launch vehicle from the Air Force Western Test Range (AFWTR). Payload-class satellites include a variety of spacecraft equipped with specific instruments for various scientific and technological missions. These include communications satellites like Starlink; space stations such as the ISS; scientific satellites like the Hubble; Earth observation satellites from companies like Planet Labs, Umbra, and HawkEye 360; GPS; miniature CubeSats for education and research; and military/defense satellites.

Loading next visibility...
Identifier
43796, 2018-099AQ
Orbit
SSO
Country
Flag of USUS
Related business
Manufacturer
SpaceQuest
Mission
Operational Commercial Sigint
Bus & Motor
CUBESAT 3U, Unknown motor
Mass
5 kg wet, 5 kg dry
Launch date (UTC)
2018-12-03 (7 years ago)
Launch vehicle
FALCON 9
Launch site
Air Force Western Test Range (AFWTR)
Object type
Payload
Rocket body
Debris
Shape & HBR
Box, 0.1 m
Radar Cross Section
0.035 m², Medium (>0.1 m² and < 1m²)

Expand to show TLE details & history
Last TLE update: 10 hours ago

TLE from 10 hours ago
0 THEA
1 43796U 18099AQ  26036.64742865  .00028920  00000-0  99048-3 0  9999
2 43796  97.4611 105.4265 0008659  40.1975 319.9904 15.30139225392545
Epoch: 2026-02-05T15:32Z
TLE epoch observation values (Epoch: 2026-02-05T15:32:17.835Z)
Latitude
-0.00006°
Longitude
96.55554°
Altitude
473.955 km
Speed
7.631 km/s
True Right ascension
07h 01m 42s
True Declination
0° 00' 00"
Sunlit
Object was in full shadow at epoch
Visualization orbit readout
Latitude
Unknown
Longitude
Unknown
Altitude
Unknown
Speed
Unknown
Apparent Right ascension
Unknown
Apparent Declination
Unknown
Sunlit
N/A
Visualization observer readout
Local Sidereal Time
04:05:41
Azimuth
Unknown
Elevation
Unknown
Doppler factor
Unknown
Orbital elements
Apogee altitude
478.283 km
Perigee altitude
466.419 km
Semi-major axis
6,850.488 km
Eccentricity
0.00087
Inclination
97.4611°
RAAN
105.4265°
Arg. of periapsis
40.1975°
True anomaly
319.92655°
Mean anomaly
319.9904°
Eccentric anomaly
319.95848°
Mean motion
3.8279 °/min
Orbital period
94.05 mins
BSTAR
0.00099048
Loading maneuver chart data...
Computing Atmospheric mass density...
Loading historical data...
Loading historical data...
Loading historical data...
Loading historical data...
Loading historical data...
Loading historical data...
Loading historical data...

Documentation

Showing up to 5 results
|